Regional Weather Roundup
Issued by NWS

Home | Current Version | Previous Version | Text Only | Print | Product List | Glossary Off
Versions: 1 2 3 4 5 6 7 8 9 10 11 12 13 14 15 16 17 18 19 20 21 22 23 24 25 26 27 28 29 30 31 32 33 34 35 36 37 38 39 40 41 42 43 44 45 46 47 48 49 50

000
ASUS43 KLSX 221759
RWRMO

WEATHER SUMMARY FOR MISSOURI
NATIONAL WEATHER SERVICE SPRINGFIELD MO
1200 PM CST SAT NOV 22 2014

NOTE: "FAIR" INDICATES FEW OR NO CLOUDS BELOW 12,000 FEET WITH NO
       SIGNIFICANT WEATHER AND/OR OBSTRUCTIONS TO VISIBILITY.
       CURRENT SKY AND/OR WEATHER CONDITIONS ARE NOT AVAILABLE FOR
       CHILLICOTHE AND FARMINGTON.

MOZ001>031-035>038-043-044-053-054-221900-
...NORTHERN AND WESTERN MISSOURI...

CITY           SKY/WX    TMP DP  RH WIND       PRES   REMARKS
KANSAS CTY INT CLOUDY    56  55  97 S21G28    29.87F
6HR MIN TEMP:  52; 6HR MAX TEMP:  57; 6HR PCP:  0.05;

KANSAS C DTWN  CLOUDY    58  54  86 SW14G23   29.89F
6HR MIN TEMP:  52; 6HR MAX TEMP:  58;

ST JOSEPH      FOG       52  52 100 SW6       29.86F VSB 1/4
6HR MIN TEMP:  42; 6HR MAX TEMP:  52;

CHILLICOTHE      N/A     59  53  80 S9        29.89F
6HR MIN TEMP:  50; 6HR MAX TEMP:  59; 6HR PCP:  0.02;

KIRKSVILLE     CLOUDY    58  51  78 S13       29.90F
6HR MIN TEMP:  49; 6HR MAX TEMP:  58;


$$
MOZ066>068-077>081-088>096-101>105-221900-
...SOUTHWEST MISSOURI...

CITY           SKY/WX    TMP DP  RH WIND       PRES   REMARKS
SPRINGFIELD    CLOUDY    57  50  77 S17G25    30.01F
6HR MIN TEMP:  49; 6HR MAX TEMP:  57; 6HR PCP:  0.01;

JOPLIN         CLOUDY    57  52  83 S20       29.98F
6HR MIN TEMP:  56; 6HR MAX TEMP:  58; 6HR PCP: TRACE;


$$
MOZ032>034-039>042-045>050-055>058-069>072-221900-
...CENTRAL MISSOURI...

CITY           SKY/WX    TMP DP  RH WIND       PRES   REMARKS
COLUMBIA       CLOUDY    58  49  72 S16G23    29.97F
6HR MIN TEMP:  51; 6HR MAX TEMP:  59;

JEFFERSON CITY CLOUDY    58  48  69 S7G17     29.99F
6HR MIN TEMP:  51; 6HR MAX TEMP:  58;

ROLLA          CLOUDY    56  47  71 S16G23    30.01F
6HR MIN TEMP:  48; 6HR MAX TEMP:  56;

SEDALIA        CLOUDY    60  51  72 S17       29.95F
6HR MIN TEMP:  52; 6HR MAX TEMP:  60;

WARRENSBURG    CLOUDY    57  50  77 S12G17    29.93F
OSAGE BEACH    CLOUDY    59  48  67 S12G18    30.00F

$$
MOZ051-052-059>065-221900-
...EAST CENTRAL MISSOURI...

CITY           SKY/WX    TMP DP  RH WIND       PRES   REMARKS
ST LOUIS INTL  CLOUDY    59  43  55 S17       30.04F
6HR MIN TEMP:  46; 6HR MAX TEMP:  59; 6HR PCP: TRACE;

SPIRIT OF STL  CLOUDY    58  45  62 S10       30.02F
6HR MIN TEMP:  40; 6HR MAX TEMP:  58; 6HR PCP: TRACE;

ST CHARLES     CLOUDY    57  48  72 S10       30.03F
6HR MIN TEMP:  38; 6HR MAX TEMP:  57;


$$
MOZ072>076-082>087-097>100-106>115-221900-
...SOUTH CENTRAL AND SOUTHEAST MISSOURI...

CITY           SKY/WX    TMP DP  RH WIND       PRES   REMARKS
CAPE GIRARDEAU PTSUNNY   61  48  62 S17G24    30.14F
6HR MIN TEMP:  49; 6HR MAX TEMP:  61; 6HR PCP:  0.02;

FARMINGTON     CLOUDY    54  48  82 S13       30.12F
6HR MIN TEMP:  48; 6HR MAX TEMP:  54;

POPLAR BLUFF   MOSUNNY   61  46  57 S16G24    30.12F
6HR MIN TEMP:  42; 6HR MAX TEMP:  62; 6HR PCP:  0.01;

WEST PLAINS    CLOUDY    52  47  83 S9        30.10F
6HR MIN TEMP:  43; 6HR MAX TEMP:  54; 6HR PCP:  0.17;


$$


USA.gov is the U.S. government's official web portal to all federal, state and local government web resources and services.